User: anonymous
Location: Brno
(49.2000°N, 16.6330°E)
Time: 05:56:55
(UTC+02:00)
Language:

Meteor 1-4 Rocket - Orbit

View from above orbital plane
View from above orbital plane
View from above satellite
View from above satellite

Ground track
Ground track

The orbit data is extracted from the following two-line orbital elements,

1 04394U 70037B   14114.15619445  .00007990  00000-0  35836-3 0  5576
2 04394 081.2436 278.6210 0049842 073.4992 287.1707 15.19920546389502
Epoch (UTC): 24 April 2014 03:44:55
Eccentricity: 0.0049842
inclination: 81.2436°
perigee height: 472 km
apogee height: 540 km
right ascension of ascending node: 278.6210°
argument of perigee: 73.4992°
revolutions per day: 15.19920546
mean anomaly at epoch: 287.1707°
orbit number at epoch: 38950

The dashed part of the orbit path shows where the satellite is in the earth's shadow,  

DLR